Regional Weather Roundup
Issued by NWS Charleston, SC

Current Version | Previous Version | Text Only | Print | Product List | Glossary Off
Versions: 1 2 3 4 5 6 7 8 9 10 11 12 13 14 15 16 17 18 19 20 21 22 23 24 25 26 27 28 29 30 31 32 33 34 35 36 37 38 39 40 41 42 43 44 45 46 47 48 49 50

288
ASUS42 KCHS 290328
RWRCHS

REGIONAL WEATHER ROUNDUP
NATIONAL WEATHER SERVICE CHARLESTON SC
1100 PM EDT SAT MAY 28 2016

NOTE: "FAIR" INDICATES FEW OR NO CLOUDS BELOW 12,000 FEET WITH NO
SIGNIFICANT WEATHER AND/OR OBSTRUCTIONS TO VISIBILITY.

NOT ALL STATIONS ARE QUALITY CONTROLLED. USE DATA WITH CAUTION...
ESPECIALLY DEWPOINT OBSERVATIONS.

SCZ027-030-031-034>040-042>050-290400-
...SOUTHEAST SOUTH CAROLINA...

CITY           SKY/WX    TMP DP  RH WIND       PRES   REMARKS
N CHARLESTON   CLOUDY    69  67  93 N16       30.02S
WATERFRONT PRK   N/A     69  69 100 N12       30.00F
MOUNT PLEASANT LGT RAIN  72  70  94 N7        30.03R
JOHNS ISLAND   HVY RAIN  70  70 100 NE8       30.02S
PINOPOLIS        N/A     72  70  94 N15       29.98
MONCKS CORNER  RAIN      68  66  94 N10       30.05S
SUMMERVILLE    LGT RAIN  68  68 100 N8        30.05F
BEAUFORT MCAS  HVY RAIN  70  68  93 N10       30.04F FOG
BEAUFORT ARPT  HVY RAIN  70  68  94 N14       30.03F
HILTON HEAD IS HVY RAIN  70  70 100 N25G31    30.03S
WALTERBORO     RAIN      68  68 100 N6        30.06F
ALLENDALE      LGT RAIN  68  66  94 N5        30.07F

...SOUTHERN MIDLANDS AND PEE DEE...

CITY           SKY/WX    TMP DP  RH WIND       PRES   REMARKS
GEORGETOWN     CLOUDY    72  70  94 NE8       30.05F
KINGSTREE      LGT RAIN  70  68  94 N5        30.08S
ORANGEBURG     LGT RAIN  68  66  93 CALM      30.09F
BARNWELL       LGT RAIN  70  70 100 NE6       30.10F
AIKEN          LGT RAIN  66  64  94 CALM      30.15S
MANNING        HVY RAIN  68  68 100 N6        30.08F
COLUMBIA       LGT RAIN  72  67  84 CALM      30.11F
SUMTER         NOT AVBL
FLORENCE       MOCLDY    73  70  90 N7        30.10S
MYRTLE BEACH   CLOUDY    73  64  73 NE8       30.08
N MYRTLE BEACH CLOUDY    73  71  93 NE8       30.06F

$$

GAZ063-065-086>088-099>101-113>116-118-119-134>141-150-290400-
...SOUTHEAST GEORGIA...

CITY           SKY/WX    TMP DP  RH WIND       PRES   REMARKS
SAVANNAH ARPT  LGT RAIN  69  67  93 N8        30.04F
HUNTER AAF     NOT AVBL
FORT STEWART   NOT AVBL
STATESBORO     MOCLDY    70  66  89 NE6       30.07F
SYLVANIA       RAIN      70  67  89 N6        30.09F
CLAXTON        FAIR      71  65  82 W5        30.08F

...CSRA...CENTRAL AND FAR SOUTHEAST GEORGIA...

CITY           SKY/WX    TMP DP  RH WIND       PRES   REMARKS
THOMSON        CLOUDY    75  70  83 CALM      30.16S
AUGUSTA-BUSH   LGT RAIN  68  66  93 E8        30.10S
AUGUSTA-DANIEL LGT RAIN  72  63  73 E10G20    30.11S
SWAINSBORO     MOCLDY    70  64  83 CALM      30.12S
VIDALIA        CLOUDY    72  63  73 CALM      30.10F
EASTMAN        CLOUDY    75  68  77 E7        30.12S
HAZLEHURST     CLOUDY    75  65  70 CALM      30.09S
ALMA           CLOUDY    74  64  71 N5        30.08S
WAYCROSS       CLOUDY    71  66  84 NE3       30.07F
JESUP          FAIR      68  63  83 N5        30.07S
BAXLEY         CLOUDY    73  66  78 N3        30.09S
BRUNSWICK      CLOUDY    73  70  88 NW3       30.05F
SAINT SIMONS   CLOUDY    72  67  84 NW7       30.04R

$$

SCZ027-028-034-036>038-045-046-048>050-GAZ119-141-290400-
...LAKE AND SUPPLEMENTAL COASTAL OBSERVATIONS...

STATION/POSITION TIME  TEMP    WIND        PRES    WAVE   SWELL
                       AIR SEA DIR/SP/G            HT/PER HT/PER/DIR
                 (UTC) (F)     (DEG/KT/KT) (MB)    (FT/S) (FT/S/D)
WINYAH BAY       0245   74      60/ 14     1017.0S
LAKE MURRAY      0200   72     120/  4/  6 1019.6R
ACE BASIN NERRS  0200   69     340/  5     1017.0F
FORT PULASKI     0300   70 76              1016.4F
SAPELO ISLAND    0300   72     340/  8     1017.0S

$$

ANZ835-935-AMZ111-154-330-350-352-354-370-450-454-472-290400-
...C-MAN AND BUOY OBSERVATIONS...

STATION/POSITION TIME  TEMP    WIND        PRES    WAVE   SWELL
                       AIR SEA DIR/SP/G            HT/PER HT/PER/DIR
                 (UTC) (F)     (DEG/KT/KT) (MB)    (FT/S) (FT/S/D)
BUOY 41004       0250   77 78   90/ 21/ 27 1014.4F   9/ 8   5/ 8
BUOY 41008       0250   73 76  350/ 19/ 25 1015.4F   7/ 9   3/110/ 9
FOLLY BEACH CMAN 0300   71      20/ 11/ 16 1016.5S
CAPERS NEARSHORE 0308   74 75   60/ 14/ 23 1016.7S
FRIPP NEARSHORE  0308   72 76  360/ 21/ 29 1015.8R


STATION/POSITION TIME  TEMP    WIND        PRES    WAVE   SWELL
                       AIR SEA DIR/SP/G            HT/PER HT/PER/DIR
                 (UTC) (F)     (DEG/KT/KT) (MB)    (FT/S) (FT/S/D)
5E ST. MARYS GA  0301      78                N/A     6/ 7   2/ 70/11
FRYING PAN BUOY  0300   78 77  100/ 16/ 19 1017.1F
BUOY 41025       0250   78 78  130/ 16/ 17 1020.1F   4/ 8   2/130/ 8
CAPE LOOKOUT NC  0300   75     100/  9/ 10 1019.3F
BUOY 41002       0250   75 76  120/ 17/ 19 1018.6S   5/ 7
BUOY 41010       0220   79 79  220/  8/  8 1016.6R
ST AUGUSTINE FL  0300   75 79  360/ 19/ 21 1018.0R


$$




USA.gov is the U.S. government's official web portal to all federal, state and local government web resources and services.